Location: Arnolds Mill
(42.3415°N, 73.5951°W)
Time: 10:38:53
(UTC+00:00)

BlueWalker 3 - Pass Details

Date: 30 June 2024
Orbit: 480 x 492 km, 53.2° (Epoch: 13 July)

Event Time Altitude Azimuth Distance (km) Brightness Sun altitude
Rises 01:02:46 0° 296° (WNW) 2,544 7.6 -5.0°
Reaches altitude 10° 01:05:40 10° 320° (NW) 1,662 6.3 -5.4°
Maximum altitude 01:07:57 15° 358° (N) 1,360 4.7 -5.7°
Drops below altitude 10° 01:10:15 10° 36° (NE) 1,660 4.6 -6.1°
Sets 01:13:09 0° 60° (ENE) 2,538 5.3 -6.5°
